Regional Weather Roundup
Issued by NWS

Home | Current Version | Previous Version | Graphics & Text | Print | Product List | Glossary On
Versions: 1 2 3 4 5 6 7 8 9 10 11 12 13 14 15 16 17 18 19 20 21 22 23 24 25 26 27 28 29 30 31 32 33 34 35 36 37 38 39 40 41 42 43 44 45 46 47 48 49 50
000
ASUS43 KFSD 300010
RWRSD

WEATHER ROUNDUP FOR SOUTH DAKOTA
NATIONAL WEATHER SERVICE SIOUX FALLS SD
700 PM CDT THU SEP 29 2016

NOTE: "FAIR" INDICATES FEW OR NO CLOUDS BELOW 12,000 FEET WITH NO
SIGNIFICANT WEATHER AND/OR OBSTRUCTIONS TO VISIBILITY.


SDZ001>005-009-010-012>017-300100-
NORTHWEST AND NORTH CENTRAL SOUTH DAKOTA

CITY           SKY/WX    TMP DP  RH WIND       PRES   REMARKS
BUFFALO          N/A     75  45  34 SE17      30.08S
FAITH            N/A     72  40  31 SE21G29   30.18F
MOBRIDGE       CLEAR     69  42  37 SE15      30.23F
$$

SDZ012>016-024>037-041>051-057-063-072>074-300100-
SOUTHWEST AND SOUTH CENTRAL SOUTH DAKOTA

CITY           SKY/WX    TMP DP  RH WIND       PRES   REMARKS
RAPID CTY ARPT CLEAR     75  45  34 S13       30.17S
PIERRE         CLEAR     67  44  43 SE15      30.24S
CUSTER         CLOUDY    68  41  37 S6        30.30S
ELLSWORTH AFB  CLEAR     77  45  32 S14       30.16S
PHILIP         CLEAR     75  41  29 SE14      30.18F
PINE RIDGE     CLEAR     76  42  29 S12G20    30.20F
WINNER         FAIR      67  44  43 SE12      30.29R
$$

SDZ004>011-016>023-039-040-300100-
NORTHEAST SOUTH DAKOTA

CITY           SKY/WX    TMP DP  RH WIND       PRES   REMARKS
ABERDEEN       CLEAR     64  44  48 SE9       30.32F
WATERTOWN      CLEAR     62  46  55 E7        30.36S
BROOKINGS      CLEAR     62  48  60 E7        30.35F
SISSETON         N/A     62  46  55 S7        30.35F
$$

SDZ017-020-022-023-036>040-048>070-300100-
SOUTHEAST SOUTH DAKOTA

CITY           SKY/WX    TMP DP  RH WIND       PRES   REMARKS
SIOUX FALLS    CLEAR     65  48  54 SE7       30.34F
HURON          CLEAR     65  46  50 SE7       30.31F
CHAMBERLAIN    CLEAR     66  48  53 SE10      30.29F
MITCHELL       CLEAR     65  46  50 SE8       30.33F
YANKTON        CLEAR     64  46  52 SE5       30.32S
$$

ABBREVIATIONS USED IN REMARKS
   TC - TEMPERATURE IN CELSIUS
  WCI - WIND CHILL INDEX
   HX - HEAT INDEX
  VSB - VISIBILITY





USA.gov is the U.S. government's official web portal to all federal, state and local government web resources and services.